Year,Month,Day,Hour,Minute,Value (Times are PST for temperature in C)
2015,07,26,00,00,15.60
2015,07,26,00,01,15.60
2015,07,26,00,02,15.60
2015,07,26,00,03,15.60
2015,07,26,00,04,15.60
2015,07,26,00,05,15.60
2015,07,26,00,06,15.60
2015,07,26,00,07,15.50
2015,07,26,00,08,15.50
2015,07,26,00,09,15.50
2015,07,26,00,10,15.50
2015,07,26,00,11,15.50
2015,07,26,00,12,15.50
2015,07,26,00,13,15.50
2015,07,26,00,14,15.40
2015,07,26,00,15,15.40
2015,07,26,00,16,15.40
2015,07,26,00,17,15.40
2015,07,26,00,18,15.40
2015,07,26,00,19,15.40
2015,07,26,00,20,15.40
2015,07,26,00,21,15.40
2015,07,26,00,22,15.40
2015,07,26,00,23,15.40
2015,07,26,00,24,15.40
2015,07,26,00,25,15.40
2015,07,26,00,26,15.30
2015,07,26,00,27,15.30
2015,07,26,00,28,15.30
2015,07,26,00,29,15.30
2015,07,26,00,30,15.30
2015,07,26,00,31,15.30
2015,07,26,00,32,15.30
2015,07,26,00,33,15.30
2015,07,26,00,34,15.30
2015,07,26,00,35,15.30
2015,07,26,00,36,15.20
2015,07,26,00,37,15.20
2015,07,26,00,38,15.20
2015,07,26,00,39,15.20
2015,07,26,00,40,15.20
2015,07,26,00,41,15.20
2015,07,26,00,42,15.20
2015,07,26,00,43,15.20
2015,07,26,00,44,15.10
2015,07,26,00,45,15.10
2015,07,26,00,46,15.10
2015,07,26,00,47,15.10
2015,07,26,00,48,15.10
2015,07,26,00,49,15.10
2015,07,26,00,50,15.10
2015,07,26,00,51,15.10
2015,07,26,00,52,15.00
2015,07,26,00,53,15.00
2015,07,26,00,54,15.00
2015,07,26,00,55,15.00
2015,07,26,00,56,15.00
2015,07,26,00,57,14.90
2015,07,26,00,58,14.90
2015,07,26,00,59,14.90
2015,07,26,01,00,14.90
2015,07,26,01,01,14.90
2015,07,26,01,02,14.90
2015,07,26,01,03,14.80
2015,07,26,01,04,14.80
2015,07,26,01,05,14.80
2015,07,26,01,06,14.80
2015,07,26,01,07,14.80
2015,07,26,01,08,14.80
2015,07,26,01,09,14.80
2015,07,26,01,10,14.80
2015,07,26,01,11,14.70
2015,07,26,01,12,14.70
2015,07,26,01,13,14.70
2015,07,26,01,14,14.70
2015,07,26,01,15,14.60
2015,07,26,01,16,14.60
2015,07,26,01,17,14.60
2015,07,26,01,18,14.50
2015,07,26,01,19,14.50
2015,07,26,01,20,14.50
2015,07,26,01,21,14.40
2015,07,26,01,22,14.40
2015,07,26,01,23,14.40
2015,07,26,01,24,14.30
2015,07,26,01,25,14.30
2015,07,26,01,26,14.30
2015,07,26,01,27,14.30
2015,07,26,01,28,14.20
2015,07,26,01,29,14.20
2015,07,26,01,30,14.20
2015,07,26,01,31,14.20
2015,07,26,01,32,14.10
2015,07,26,01,33,14.10
2015,07,26,01,34,14.10
2015,07,26,01,35,14.10
2015,07,26,01,36,14.00
2015,07,26,01,37,14.00
2015,07,26,01,38,13.90
2015,07,26,01,39,13.90
2015,07,26,01,40,13.90
2015,07,26,01,41,13.90
2015,07,26,01,42,13.90
2015,07,26,01,43,13.90
2015,07,26,01,44,13.90
2015,07,26,01,45,13.90
2015,07,26,01,46,13.90
2015,07,26,01,47,13.90
2015,07,26,01,48,13.90
2015,07,26,01,49,13.90
2015,07,26,01,50,13.90
2015,07,26,01,51,14.00
2015,07,26,01,52,14.00
2015,07,26,01,53,14.00
2015,07,26,01,54,14.00
2015,07,26,01,55,13.90
2015,07,26,01,56,13.90
2015,07,26,01,57,13.90
2015,07,26,01,58,13.90
2015,07,26,01,59,13.90
2015,07,26,02,00,13.90
2015,07,26,02,01,13.90
2015,07,26,02,02,13.90
2015,07,26,02,03,13.90
2015,07,26,02,04,13.90
2015,07,26,02,05,13.90
2015,07,26,02,06,13.90
2015,07,26,02,07,13.90
2015,07,26,02,08,13.90
2015,07,26,02,09,13.90
2015,07,26,02,10,13.90
2015,07,26,02,11,13.90
2015,07,26,02,12,13.90
2015,07,26,02,13,13.90
2015,07,26,02,14,13.90
2015,07,26,02,15,14.00
2015,07,26,02,16,14.00
2015,07,26,02,17,14.00
2015,07,26,02,18,14.00
2015,07,26,02,19,14.00
2015,07,26,02,20,14.00
2015,07,26,02,21,14.00
2015,07,26,02,22,14.00
2015,07,26,02,23,14.00
2015,07,26,02,24,14.00
2015,07,26,02,25,14.00
2015,07,26,02,26,14.00
2015,07,26,02,27,14.00
2015,07,26,02,28,14.00
2015,07,26,02,29,14.00
2015,07,26,02,30,14.00
2015,07,26,02,31,14.00
2015,07,26,02,32,14.00
2015,07,26,02,33,14.00
2015,07,26,02,34,14.00
2015,07,26,02,35,14.00
2015,07,26,02,36,14.00
2015,07,26,02,37,14.00
2015,07,26,02,38,14.00
2015,07,26,02,39,14.00
2015,07,26,02,40,14.00
2015,07,26,02,41,14.00
2015,07,26,02,42,14.00
2015,07,26,02,43,14.00
2015,07,26,02,44,14.00
2015,07,26,02,45,14.00
2015,07,26,02,46,14.00
2015,07,26,02,47,14.00
2015,07,26,02,48,14.00
2015,07,26,02,49,14.00
2015,07,26,02,50,14.00
2015,07,26,02,51,14.10
2015,07,26,02,52,14.10
2015,07,26,02,53,14.10
2015,07,26,02,54,14.10
2015,07,26,02,55,14.10
2015,07,26,02,56,14.10
2015,07,26,02,57,14.10
2015,07,26,02,58,14.10
2015,07,26,02,59,14.10
2015,07,26,03,00,14.10
2015,07,26,03,01,14.10
2015,07,26,03,02,14.10
2015,07,26,03,03,14.10
2015,07,26,03,04,14.10
2015,07,26,03,05,14.10
2015,07,26,03,06,14.10
2015,07,26,03,07,14.10
2015,07,26,03,08,14.20
2015,07,26,03,09,14.20
2015,07,26,03,10,14.20
2015,07,26,03,11,14.20
2015,07,26,03,12,14.20
2015,07,26,03,13,14.20
2015,07,26,03,14,14.20
2015,07,26,03,15,14.20
2015,07,26,03,16,14.30
2015,07,26,03,17,14.30
2015,07,26,03,18,14.30
2015,07,26,03,19,14.30
2015,07,26,03,20,14.30
2015,07,26,03,21,14.30
2015,07,26,03,22,14.30
2015,07,26,03,23,14.30
2015,07,26,03,24,14.30
2015,07,26,03,25,14.30
2015,07,26,03,26,14.30
2015,07,26,03,27,14.30
2015,07,26,03,28,14.40
2015,07,26,03,29,14.40
2015,07,26,03,30,14.40
2015,07,26,03,31,14.40
2015,07,26,03,32,14.40
2015,07,26,03,33,14.40
2015,07,26,03,34,14.40
2015,07,26,03,35,14.40
2015,07,26,03,36,14.40
2015,07,26,03,37,14.40
2015,07,26,03,38,14.40
2015,07,26,03,39,14.40
2015,07,26,03,40,14.40
2015,07,26,03,41,14.40
2015,07,26,03,42,14.40
2015,07,26,03,43,14.40
2015,07,26,03,44,14.40
2015,07,26,03,45,14.40
2015,07,26,03,46,14.40
2015,07,26,03,47,14.40
2015,07,26,03,48,14.40
2015,07,26,03,49,14.40
2015,07,26,03,50,14.40
2015,07,26,03,51,14.40
2015,07,26,03,52,14.40
2015,07,26,03,53,14.40
2015,07,26,03,54,14.40
2015,07,26,03,55,14.40
2015,07,26,03,56,14.40
2015,07,26,03,57,14.40
2015,07,26,03,58,14.40
2015,07,26,03,59,14.40
2015,07,26,04,00,14.30
2015,07,26,04,01,14.30
2015,07,26,04,02,14.30
2015,07,26,04,03,14.30
2015,07,26,04,04,14.30
2015,07,26,04,05,14.30
2015,07,26,04,06,14.30
2015,07,26,04,07,14.30
2015,07,26,04,08,14.30
2015,07,26,04,09,14.30
2015,07,26,04,10,14.30
2015,07,26,04,11,14.30
2015,07,26,04,12,14.30
2015,07,26,04,13,14.30
2015,07,26,04,14,14.30
2015,07,26,04,15,14.30
2015,07,26,04,16,14.30
2015,07,26,04,17,14.30
2015,07,26,04,18,14.30
2015,07,26,04,19,14.30
2015,07,26,04,20,14.30
2015,07,26,04,21,14.30
2015,07,26,04,22,14.30
2015,07,26,04,23,14.30
2015,07,26,04,24,14.30
2015,07,26,04,25,14.30
2015,07,26,04,26,14.30
2015,07,26,04,27,14.30
2015,07,26,04,28,14.30
2015,07,26,04,29,14.30
2015,07,26,04,30,14.30
2015,07,26,04,31,14.30
2015,07,26,04,32,14.30
2015,07,26,04,33,14.30
2015,07,26,04,34,14.30
2015,07,26,04,35,14.30
2015,07,26,04,36,14.30
2015,07,26,04,37,14.30
2015,07,26,04,38,14.30
2015,07,26,04,39,14.30
2015,07,26,04,40,14.30
2015,07,26,04,41,14.30
2015,07,26,04,42,14.30
2015,07,26,04,43,14.30
2015,07,26,04,44,14.30
2015,07,26,04,45,14.30
2015,07,26,04,46,14.30
2015,07,26,04,47,14.30
2015,07,26,04,48,14.40
2015,07,26,04,49,14.40
2015,07,26,04,50,14.40
2015,07,26,04,51,14.40
2015,07,26,04,52,14.40
2015,07,26,04,53,14.40
2015,07,26,04,54,14.40
2015,07,26,04,55,14.40
2015,07,26,04,56,14.40
2015,07,26,04,57,14.40
2015,07,26,04,58,14.40
2015,07,26,04,59,14.40
2015,07,26,05,00,14.40
2015,07,26,05,01,14.40
2015,07,26,05,02,14.40
2015,07,26,05,03,14.40
2015,07,26,05,04,14.30
2015,07,26,05,05,14.40
2015,07,26,05,06,14.30
2015,07,26,05,07,14.30
2015,07,26,05,08,14.30
2015,07,26,05,09,14.40
2015,07,26,05,10,14.30
2015,07,26,05,11,14.30
2015,07,26,05,12,14.40
2015,07,26,05,13,14.40
2015,07,26,05,14,14.40
2015,07,26,05,15,14.40
2015,07,26,05,16,14.40
2015,07,26,05,17,14.40
2015,07,26,05,18,14.40
2015,07,26,05,19,14.40
2015,07,26,05,20,14.40
2015,07,26,05,21,14.40
2015,07,26,05,22,14.40
2015,07,26,05,23,14.40
2015,07,26,05,24,14.40
2015,07,26,05,25,14.40
2015,07,26,05,26,14.40
2015,07,26,05,27,14.40
2015,07,26,05,28,14.40
2015,07,26,05,29,14.40
2015,07,26,05,30,14.40
2015,07,26,05,31,14.40
2015,07,26,05,32,14.40
2015,07,26,05,33,14.40
2015,07,26,05,34,14.40
2015,07,26,05,35,14.40
2015,07,26,05,36,14.40
2015,07,26,05,37,14.40
2015,07,26,05,38,14.40
2015,07,26,05,39,14.40
2015,07,26,05,40,14.40
2015,07,26,05,41,14.40
2015,07,26,05,42,14.30
2015,07,26,05,43,14.40
2015,07,26,05,44,14.40
2015,07,26,05,45,14.30
2015,07,26,05,46,14.40
2015,07,26,05,47,14.40
2015,07,26,05,48,14.40
2015,07,26,05,49,14.40
2015,07,26,05,50,14.40
2015,07,26,05,51,14.40
2015,07,26,05,52,14.40
2015,07,26,05,53,14.40
2015,07,26,05,54,14.40
2015,07,26,05,55,14.40
2015,07,26,05,56,14.40
2015,07,26,05,57,14.40
2015,07,26,05,58,14.40
2015,07,26,05,59,14.40
2015,07,26,06,00,14.40
2015,07,26,06,01,14.40
2015,07,26,06,02,14.40
2015,07,26,06,03,14.40
2015,07,26,06,04,14.40
2015,07,26,06,05,14.40
2015,07,26,06,06,14.40
2015,07,26,06,07,14.40
2015,07,26,06,08,14.40
2015,07,26,06,09,14.40
2015,07,26,06,10,14.40
2015,07,26,06,11,14.40
2015,07,26,06,12,14.40
2015,07,26,06,13,14.40
2015,07,26,06,14,14.40
2015,07,26,06,15,14.40
2015,07,26,06,16,14.40
2015,07,26,06,17,14.40
2015,07,26,06,18,14.40
2015,07,26,06,19,14.40
2015,07,26,06,20,14.40
2015,07,26,06,21,14.40
2015,07,26,06,22,14.40
2015,07,26,06,23,14.40
2015,07,26,06,24,14.40
2015,07,26,06,25,14.40
2015,07,26,06,26,14.40
2015,07,26,06,27,14.40
2015,07,26,06,28,14.40
2015,07,26,06,29,14.40
2015,07,26,06,30,14.40
2015,07,26,06,31,14.40
2015,07,26,06,32,14.40
2015,07,26,06,33,14.40
2015,07,26,06,34,14.40
2015,07,26,06,35,14.40
2015,07,26,06,36,14.40
2015,07,26,06,37,14.40
2015,07,26,06,38,14.40
2015,07,26,06,39,14.40
2015,07,26,06,40,14.40
2015,07,26,06,41,14.40
2015,07,26,06,42,14.40
2015,07,26,06,43,14.40
2015,07,26,06,44,14.40
2015,07,26,06,45,14.40
2015,07,26,06,46,14.40
2015,07,26,06,47,14.40
2015,07,26,06,48,14.40
2015,07,26,06,49,14.40
2015,07,26,06,50,14.40
2015,07,26,06,51,14.40
2015,07,26,06,52,14.40
2015,07,26,06,53,14.40
2015,07,26,06,54,14.40
2015,07,26,06,55,14.40
2015,07,26,06,56,14.40
2015,07,26,06,57,14.40
2015,07,26,06,58,14.40
2015,07,26,06,59,14.50
2015,07,26,07,00,14.50
2015,07,26,07,01,14.50
2015,07,26,07,02,14.50
2015,07,26,07,03,14.50
2015,07,26,07,04,14.50
2015,07,26,07,05,14.50
2015,07,26,07,06,14.60
2015,07,26,07,07,14.60
2015,07,26,07,08,14.60
2015,07,26,07,09,14.60
2015,07,26,07,10,14.60
2015,07,26,07,11,14.60
2015,07,26,07,12,14.60
2015,07,26,07,13,14.60
2015,07,26,07,14,14.70
2015,07,26,07,15,14.70
2015,07,26,07,16,14.70
2015,07,26,07,17,14.70
2015,07,26,07,18,14.70
2015,07,26,07,19,14.70
2015,07,26,07,20,14.70
2015,07,26,07,21,14.70
2015,07,26,07,22,14.80
2015,07,26,07,23,14.80
2015,07,26,07,24,14.80
2015,07,26,07,25,14.80
2015,07,26,07,26,14.80
2015,07,26,07,27,14.80
2015,07,26,07,28,14.80
2015,07,26,07,29,14.90
2015,07,26,07,30,14.90
2015,07,26,07,31,14.90
2015,07,26,07,32,14.90
2015,07,26,07,33,14.90
2015,07,26,07,34,14.90
2015,07,26,07,35,14.90
2015,07,26,07,36,14.90
2015,07,26,07,37,14.90
2015,07,26,07,38,14.90
2015,07,26,07,39,14.90
2015,07,26,07,40,15.00
2015,07,26,07,41,15.00
2015,07,26,07,42,15.00
2015,07,26,07,43,15.00
2015,07,26,07,44,15.00
2015,07,26,07,45,15.00
2015,07,26,07,46,15.00
2015,07,26,07,47,15.00
2015,07,26,07,48,15.00
2015,07,26,07,49,15.00
2015,07,26,07,50,15.00
2015,07,26,07,51,15.00
2015,07,26,07,52,15.10
2015,07,26,07,53,15.10
2015,07,26,07,54,15.10
2015,07,26,07,55,15.10
2015,07,26,07,56,15.10
2015,07,26,07,57,15.10
2015,07,26,07,58,15.10
2015,07,26,07,59,15.10
2015,07,26,08,00,15.10
2015,07,26,08,01,15.00
2015,07,26,08,02,15.00
2015,07,26,08,03,15.00
2015,07,26,08,04,15.00
2015,07,26,08,05,15.00
2015,07,26,08,06,15.00
2015,07,26,08,07,15.00
2015,07,26,08,08,15.00
2015,07,26,08,09,15.00
2015,07,26,08,10,15.00
2015,07,26,08,11,15.00
2015,07,26,08,12,15.00
2015,07,26,08,13,14.90
2015,07,26,08,14,14.90
2015,07,26,08,15,14.90
2015,07,26,08,16,14.90
2015,07,26,08,17,14.90
2015,07,26,08,18,14.90
2015,07,26,08,19,14.90
2015,07,26,08,20,14.90
2015,07,26,08,21,14.90
2015,07,26,08,22,14.90
2015,07,26,08,23,14.90
2015,07,26,08,24,14.90
2015,07,26,08,25,14.90
2015,07,26,08,26,14.90
2015,07,26,08,27,14.90
2015,07,26,08,28,14.90
2015,07,26,08,29,14.90
2015,07,26,08,30,14.90
2015,07,26,08,31,14.90
2015,07,26,08,32,15.00
2015,07,26,08,33,15.00
2015,07,26,08,34,15.00
2015,07,26,08,35,15.00
2015,07,26,08,36,15.10
2015,07,26,08,37,15.10
2015,07,26,08,38,15.10
2015,07,26,08,39,15.10
2015,07,26,08,40,15.10
2015,07,26,08,41,15.20
2015,07,26,08,42,15.20
2015,07,26,08,43,15.20
2015,07,26,08,44,15.20
2015,07,26,08,45,15.20
2015,07,26,08,46,15.20
2015,07,26,08,47,15.30
2015,07,26,08,48,15.30
2015,07,26,08,49,15.30
2015,07,26,08,50,15.30
2015,07,26,08,51,15.30
2015,07,26,08,52,15.30
2015,07,26,08,53,15.30
2015,07,26,08,54,15.30
2015,07,26,08,55,15.30
2015,07,26,08,56,15.30
2015,07,26,08,57,15.40
2015,07,26,08,58,15.40
2015,07,26,08,59,15.40
2015,07,26,09,00,15.40
2015,07,26,09,01,15.40
2015,07,26,09,02,15.40
2015,07,26,09,03,15.50
2015,07,26,09,04,15.50
2015,07,26,09,05,15.50
2015,07,26,09,06,15.50
2015,07,26,09,07,15.60
2015,07,26,09,08,15.60
2015,07,26,09,09,15.60
2015,07,26,09,10,15.60
2015,07,26,09,11,15.60
2015,07,26,09,12,15.70
2015,07,26,09,13,15.70
2015,07,26,09,14,15.70
2015,07,26,09,15,15.70
2015,07,26,09,16,15.80
2015,07,26,09,17,15.80
2015,07,26,09,18,15.80
2015,07,26,09,19,15.80
2015,07,26,09,20,15.80
2015,07,26,09,21,15.80
2015,07,26,09,22,15.80
2015,07,26,09,23,15.80
2015,07,26,09,24,15.80
2015,07,26,09,25,15.80
2015,07,26,09,26,15.80
2015,07,26,09,27,15.80
2015,07,26,09,28,15.80
2015,07,26,09,29,15.80
2015,07,26,09,30,15.80
2015,07,26,09,31,15.80
2015,07,26,09,32,15.70
2015,07,26,09,33,15.70
2015,07,26,09,34,15.70
2015,07,26,09,35,15.70
2015,07,26,09,36,15.70
2015,07,26,09,37,15.70
2015,07,26,09,38,15.70
2015,07,26,09,39,15.70
2015,07,26,09,40,15.70
2015,07,26,09,41,15.80
2015,07,26,09,42,15.80
2015,07,26,09,43,15.80
2015,07,26,09,44,15.80
2015,07,26,09,45,15.80
2015,07,26,09,46,15.80
2015,07,26,09,47,15.80
2015,07,26,09,48,15.80
2015,07,26,09,49,15.80
2015,07,26,09,50,15.80
2015,07,26,09,51,15.80
2015,07,26,09,52,15.80
2015,07,26,09,53,15.80
2015,07,26,09,54,15.80
2015,07,26,09,55,15.90
2015,07,26,09,56,15.90
2015,07,26,09,57,15.90
2015,07,26,09,58,15.90
2015,07,26,09,59,15.90
2015,07,26,10,00,15.90
2015,07,26,10,01,16.00
2015,07,26,10,02,16.00
2015,07,26,10,03,16.00
2015,07,26,10,04,16.10
2015,07,26,10,05,16.10
2015,07,26,10,06,16.10
2015,07,26,10,07,16.10
2015,07,26,10,08,16.20
2015,07,26,10,09,16.20
2015,07,26,10,10,16.20
2015,07,26,10,11,16.20
2015,07,26,10,12,16.20
2015,07,26,10,13,16.30
2015,07,26,10,14,16.30
2015,07,26,10,15,16.30
2015,07,26,10,16,16.30
2015,07,26,10,17,16.30
2015,07,26,10,18,16.30
2015,07,26,10,19,16.40
2015,07,26,10,20,16.40
2015,07,26,10,21,16.40
2015,07,26,10,22,16.50
2015,07,26,10,23,16.50
2015,07,26,10,24,16.50
2015,07,26,10,25,16.60
2015,07,26,10,26,16.60
2015,07,26,10,27,16.70
2015,07,26,10,28,16.70
2015,07,26,10,29,16.80
2015,07,26,10,30,16.80
2015,07,26,10,31,16.80
2015,07,26,10,32,16.80
2015,07,26,10,33,16.80
2015,07,26,10,34,16.90
2015,07,26,10,35,16.90
2015,07,26,10,36,17.00
2015,07,26,10,37,17.00
2015,07,26,10,38,17.10
2015,07,26,10,39,17.10
2015,07,26,10,40,17.10
2015,07,26,10,41,17.20
2015,07,26,10,42,17.20
2015,07,26,10,43,17.30
2015,07,26,10,44,17.30
2015,07,26,10,45,17.40
2015,07,26,10,46,17.50
2015,07,26,10,47,17.60
2015,07,26,10,48,17.60
2015,07,26,10,49,17.60
2015,07,26,10,50,17.70
2015,07,26,10,51,17.70
2015,07,26,10,52,17.70
2015,07,26,10,53,17.80
2015,07,26,10,54,17.80
2015,07,26,10,55,17.80
2015,07,26,10,56,17.90
2015,07,26,10,57,17.90
2015,07,26,10,58,18.00
2015,07,26,10,59,18.00
2015,07,26,11,00,18.00
2015,07,26,11,01,18.00
2015,07,26,11,02,17.90
2015,07,26,11,03,17.90
2015,07,26,11,04,17.90
2015,07,26,11,05,18.00
2015,07,26,11,06,18.10
2015,07,26,11,07,18.10
2015,07,26,11,08,18.20
2015,07,26,11,09,18.20
2015,07,26,11,10,18.30
2015,07,26,11,11,18.30
2015,07,26,11,12,18.30
2015,07,26,11,13,18.30
2015,07,26,11,14,18.40
2015,07,26,11,15,18.50
2015,07,26,11,16,18.60
2015,07,26,11,17,18.70
2015,07,26,11,18,18.70
2015,07,26,11,19,18.80
2015,07,26,11,20,18.90
2015,07,26,11,21,19.00
2015,07,26,11,22,19.10
2015,07,26,11,23,19.20
2015,07,26,11,24,19.10
2015,07,26,11,25,19.00
2015,07,26,11,26,19.00
2015,07,26,11,27,18.90
2015,07,26,11,28,18.90
2015,07,26,11,29,19.00
2015,07,26,11,30,19.00
2015,07,26,11,31,19.20
2015,07,26,11,32,19.40
2015,07,26,11,33,19.60
2015,07,26,11,34,19.80
2015,07,26,11,35,20.10
2015,07,26,11,36,20.20
2015,07,26,11,37,20.30
2015,07,26,11,38,20.30
2015,07,26,11,39,20.10
2015,07,26,11,40,19.80
2015,07,26,11,41,19.60
2015,07,26,11,42,19.50
2015,07,26,11,43,19.40
2015,07,26,11,44,19.40
2015,07,26,11,45,19.40
2015,07,26,11,46,19.40
2015,07,26,11,47,19.40
2015,07,26,11,48,19.40
2015,07,26,11,49,19.40
2015,07,26,11,50,19.30
2015,07,26,11,51,19.20
2015,07,26,11,52,19.10
2015,07,26,11,53,19.00
2015,07,26,11,54,18.90
2015,07,26,11,55,18.80
2015,07,26,11,56,18.70
2015,07,26,11,57,18.70
2015,07,26,11,58,18.70
2015,07,26,11,59,18.60
2015,07,26,12,00,18.50
2015,07,26,12,01,18.50
2015,07,26,12,02,18.40
2015,07,26,12,03,18.30
2015,07,26,12,04,18.30
2015,07,26,12,05,18.30
2015,07,26,12,06,18.30
2015,07,26,12,07,18.20
2015,07,26,12,08,18.20
2015,07,26,12,09,18.20
2015,07,26,12,10,18.30
2015,07,26,12,11,18.20
2015,07,26,12,12,18.20
2015,07,26,12,13,18.20
2015,07,26,12,14,18.20
2015,07,26,12,15,18.20
2015,07,26,12,16,18.10
2015,07,26,12,17,18.00
2015,07,26,12,18,17.80
2015,07,26,12,19,17.70
2015,07,26,12,20,17.70
2015,07,26,12,21,17.60
2015,07,26,12,22,17.50
2015,07,26,12,23,17.50
2015,07,26,12,24,17.50
2015,07,26,12,25,17.40
2015,07,26,12,26,17.40
2015,07,26,12,27,17.40
2015,07,26,12,28,17.40
2015,07,26,12,29,17.40
2015,07,26,12,30,17.40
2015,07,26,12,31,17.40
2015,07,26,12,32,17.40
2015,07,26,12,33,17.40
2015,07,26,12,34,17.30
2015,07,26,12,35,17.40
2015,07,26,12,36,17.40
2015,07,26,12,37,17.40
2015,07,26,12,38,17.30
2015,07,26,12,39,17.30
2015,07,26,12,40,17.30
2015,07,26,12,41,17.20
2015,07,26,12,42,17.20
2015,07,26,12,43,17.20
2015,07,26,12,44,17.10
2015,07,26,12,45,17.10
2015,07,26,12,46,17.10
2015,07,26,12,47,17.00
2015,07,26,12,48,17.00
2015,07,26,12,49,17.00
2015,07,26,12,50,16.90
2015,07,26,12,51,16.80
2015,07,26,12,52,16.60
2015,07,26,12,53,16.40
2015,07,26,12,54,16.20
2015,07,26,12,55,16.00
2015,07,26,12,56,15.80
2015,07,26,12,57,15.60
2015,07,26,12,58,15.40
2015,07,26,12,59,15.30
2015,07,26,13,00,15.10
2015,07,26,13,01,15.00
2015,07,26,13,02,14.90
2015,07,26,13,03,14.80
2015,07,26,13,04,14.80
2015,07,26,13,05,14.80
2015,07,26,13,06,14.80
2015,07,26,13,07,14.70
2015,07,26,13,08,14.70
2015,07,26,13,09,14.70
2015,07,26,13,10,14.60
2015,07,26,13,11,14.60
2015,07,26,13,12,14.60
2015,07,26,13,13,14.60
2015,07,26,13,14,14.50
2015,07,26,13,15,14.50
2015,07,26,13,16,14.50
2015,07,26,13,17,14.50
2015,07,26,13,18,14.40
2015,07,26,13,19,14.40
2015,07,26,13,20,14.40
2015,07,26,13,21,14.40
2015,07,26,13,22,14.40
2015,07,26,13,23,14.30
2015,07,26,13,24,14.30
2015,07,26,13,25,14.30
2015,07,26,13,26,14.20
2015,07,26,13,27,14.20
2015,07,26,13,28,14.20
2015,07,26,13,29,14.20
2015,07,26,13,30,14.20
2015,07,26,13,31,14.20
2015,07,26,13,32,14.20
2015,07,26,13,33,14.20
2015,07,26,13,34,14.20
2015,07,26,13,35,14.20
2015,07,26,13,36,14.20
2015,07,26,13,37,14.20
2015,07,26,13,38,14.20
2015,07,26,13,39,14.20
2015,07,26,13,40,14.20
2015,07,26,13,41,14.20
2015,07,26,13,42,14.20
2015,07,26,13,43,14.20
2015,07,26,13,44,14.20
2015,07,26,13,45,14.20
2015,07,26,13,46,14.30
2015,07,26,13,47,14.30
2015,07,26,13,48,14.30
2015,07,26,13,49,14.30
2015,07,26,13,50,14.20
2015,07,26,13,51,14.20
2015,07,26,13,52,14.10
2015,07,26,13,53,14.10
2015,07,26,13,54,14.10
2015,07,26,13,55,14.00
2015,07,26,13,56,14.00
2015,07,26,13,57,13.90
2015,07,26,13,58,13.90
2015,07,26,13,59,13.90
2015,07,26,14,00,13.90
2015,07,26,14,01,13.90
2015,07,26,14,02,13.90
2015,07,26,14,03,13.90
2015,07,26,14,04,13.90
2015,07,26,14,05,13.80
2015,07,26,14,06,13.80
2015,07,26,14,07,13.80
2015,07,26,14,08,13.80
2015,07,26,14,09,13.80
2015,07,26,14,10,13.80
2015,07,26,14,11,13.80
2015,07,26,14,12,13.70
2015,07,26,14,13,13.70
2015,07,26,14,14,13.70
2015,07,26,14,15,13.70
2015,07,26,14,16,13.70
2015,07,26,14,17,13.70
2015,07,26,14,18,13.70
2015,07,26,14,19,13.70
2015,07,26,14,20,13.70
2015,07,26,14,21,13.70
2015,07,26,14,22,13.70
2015,07,26,14,23,13.60
2015,07,26,14,24,13.60
2015,07,26,14,25,13.60
2015,07,26,14,26,13.60
2015,07,26,14,27,13.60
2015,07,26,14,28,13.60
2015,07,26,14,29,13.60
2015,07,26,14,30,13.60
2015,07,26,14,31,13.60
2015,07,26,14,32,13.50
2015,07,26,14,33,13.50
2015,07,26,14,34,13.50
2015,07,26,14,35,13.50
2015,07,26,14,36,13.50
2015,07,26,14,37,13.50
2015,07,26,14,38,13.50
2015,07,26,14,39,13.50
2015,07,26,14,40,13.50
2015,07,26,14,41,13.50
2015,07,26,14,42,13.50
2015,07,26,14,43,13.50
2015,07,26,14,44,13.50
2015,07,26,14,45,13.40
2015,07,26,14,46,13.40
2015,07,26,14,47,13.40
2015,07,26,14,48,13.40
2015,07,26,14,49,13.40
2015,07,26,14,50,13.40
2015,07,26,14,51,13.40
2015,07,26,14,52,13.40
2015,07,26,14,53,13.40
2015,07,26,14,54,13.40
2015,07,26,14,55,13.40
2015,07,26,14,56,13.50
2015,07,26,14,57,13.50
2015,07,26,14,58,13.50
2015,07,26,14,59,13.50
2015,07,26,15,00,13.50
2015,07,26,15,01,13.50
2015,07,26,15,02,13.60
2015,07,26,15,03,13.60
2015,07,26,15,04,13.60
2015,07,26,15,05,13.60
2015,07,26,15,06,13.60
2015,07,26,15,07,13.60
2015,07,26,15,08,13.60
2015,07,26,15,09,13.70
2015,07,26,15,10,13.70
2015,07,26,15,11,13.70
2015,07,26,15,12,13.70
2015,07,26,15,13,13.70
2015,07,26,15,14,13.70
2015,07,26,15,15,13.70
2015,07,26,15,16,13.70
2015,07,26,15,17,13.70
2015,07,26,15,18,13.70
2015,07,26,15,19,13.70
2015,07,26,15,20,13.70
2015,07,26,15,21,13.70
2015,07,26,15,22,13.70
2015,07,26,15,23,13.70
2015,07,26,15,24,13.70
2015,07,26,15,25,13.80
2015,07,26,15,26,13.80
2015,07,26,15,27,13.80
2015,07,26,15,28,13.80
2015,07,26,15,29,13.80
2015,07,26,15,30,13.80
2015,07,26,15,31,13.80
2015,07,26,15,32,13.80
2015,07,26,15,33,13.80
2015,07,26,15,34,13.80
2015,07,26,15,35,13.80
2015,07,26,15,36,13.80
2015,07,26,15,37,13.80
2015,07,26,15,38,13.80
2015,07,26,15,39,13.80
2015,07,26,15,40,13.80
2015,07,26,15,41,13.80
2015,07,26,15,42,13.80
2015,07,26,15,43,13.90
2015,07,26,15,44,13.90
2015,07,26,15,45,13.90
2015,07,26,15,46,13.90
2015,07,26,15,47,13.90
2015,07,26,15,48,13.90
2015,07,26,15,49,13.90
2015,07,26,15,50,14.00
2015,07,26,15,51,14.00
2015,07,26,15,52,14.10
2015,07,26,15,53,14.10
2015,07,26,15,54,14.10
2015,07,26,15,55,14.10
2015,07,26,15,56,14.10
2015,07,26,15,57,14.10
2015,07,26,15,58,14.10
2015,07,26,15,59,14.10
2015,07,26,16,00,14.10
2015,07,26,16,01,14.10
2015,07,26,16,02,14.10
2015,07,26,16,03,14.10
2015,07,26,16,04,14.10
2015,07,26,16,05,14.20
2015,07,26,16,06,14.20
2015,07,26,16,07,14.20
2015,07,26,16,08,14.20
2015,07,26,16,09,14.20
2015,07,26,16,10,14.30
2015,07,26,16,11,14.30
2015,07,26,16,12,14.40
2015,07,26,16,13,14.50
2015,07,26,16,14,14.60
2015,07,26,16,15,14.70
2015,07,26,16,16,14.70
2015,07,26,16,17,14.80
2015,07,26,16,18,14.80
2015,07,26,16,19,14.80
2015,07,26,16,20,14.90
2015,07,26,16,21,14.90
2015,07,26,16,22,14.90
2015,07,26,16,23,14.90
2015,07,26,16,24,14.90
2015,07,26,16,25,15.00
2015,07,26,16,26,15.00
2015,07,26,16,27,15.10
2015,07,26,16,28,15.10
2015,07,26,16,29,15.20
2015,07,26,16,30,15.30
2015,07,26,16,31,15.30
2015,07,26,16,32,15.40
2015,07,26,16,33,15.40
2015,07,26,16,34,15.40
2015,07,26,16,35,15.40
2015,07,26,16,36,15.50
2015,07,26,16,37,15.50
2015,07,26,16,38,15.50
2015,07,26,16,39,15.60
2015,07,26,16,40,15.60
2015,07,26,16,41,15.50
2015,07,26,16,42,15.50
2015,07,26,16,43,15.60
2015,07,26,16,44,15.60
2015,07,26,16,45,15.60
2015,07,26,16,46,15.60
2015,07,26,16,47,15.60
2015,07,26,16,48,15.60
2015,07,26,16,49,15.70
2015,07,26,16,50,15.60
2015,07,26,16,51,15.70
2015,07,26,16,52,15.70
2015,07,26,16,53,15.70
2015,07,26,16,54,15.70
2015,07,26,16,55,15.80
2015,07,26,16,56,15.90
2015,07,26,16,57,16.00
2015,07,26,16,58,16.20
2015,07,26,16,59,16.30
2015,07,26,17,00,16.30
2015,07,26,17,01,16.40
2015,07,26,17,02,16.50
2015,07,26,17,03,16.60
2015,07,26,17,04,16.60
2015,07,26,17,05,16.80
2015,07,26,17,06,16.90
2015,07,26,17,07,16.90
2015,07,26,17,08,17.00
2015,07,26,17,09,17.00
2015,07,26,17,10,17.10
2015,07,26,17,11,17.10
2015,07,26,17,12,17.20
2015,07,26,17,13,17.20
2015,07,26,17,14,17.30
2015,07,26,17,15,17.40
2015,07,26,17,16,17.50
2015,07,26,17,17,17.60
2015,07,26,17,18,17.60
2015,07,26,17,19,17.70